Regional Weather Roundup
Issued by NWS State College, PA

Home | Current Version | Previous Version | Text Only | Print | Product List | Glossary Off
Versions: 1 2 3 4 5 6 7 8 9 10 11 12 13 14 15 16 17 18 19 20 21 22 23 24 25 26 27 28 29 30 31 32 33 34 35 36 37 38 39 40 41 42 43 44 45 46 47 48 49 50

000
ASUS41 KCTP 220310
RWRCTP

REGIONAL WEATHER ROUNDUP
NATIONAL WEATHER SERVICE STATE COLLEGE PA
1000 PM EST TUE NOV 21 2017

Note: "fair" indicates few or no clouds below 12,000 feet with no
significant weather and/or obstructions to visibility.

* = STATION THAT DOES NOT REPORT PRECIPITATION /E.G. RAIN...SNOW...ETC/
    THUNDER OR FOG.

PAZ002>004-007>009-013>016-020>023-029>032-220400-
WESTERN PENNSYLVANIA

CITY           SKY/WX    TMP DP  RH WIND       PRES   REMARKS
ERIE           LGT RAIN  44  41  89 W10       29.90S
MEADVILLE      NOT AVBL
FRANKLIN*      CLOUDY    47  29  49 SW10      29.90S
NEW CASTLE     MOCLDY    48  30  49 VRB7      29.92S
BEAVER COUNTY  NOT AVBL
BUTLER*        CLOUDY    45  30  55 SW6       29.92S
PITTSBURGH INT CLOUDY    50  29  44 W5        29.92S
PITTSBURGH     CLOUDY    50  28  42 SW9       29.92S
INDIANA*       CLOUDY    41  30  65 CALM      29.96S
LATROBE        MOCLDY    41  30  65 CALM      29.94S
WASHINGTON CO* PTCLDY    45  31  58 SW5       29.96R
$$

PAZ004>006-010>012-017>019-024>028-033>037-041-042-045-046-049>053-220400-
CENTRAL PENNSYLVANIA

CITY           SKY/WX    TMP DP  RH WIND       PRES   REMARKS
BRADFORD       CLOUDY    45  27  49 SW6       29.88S
DUBOIS         CLOUDY    46  26  45 SW5       29.90S
CLEARFIELD     CLOUDY    39  27  62 CALM      29.92S
JOHNSTOWN      PTCLDY    48  27  44 SW10      29.93S
ALTOONA        PTCLDY    44  25  47 CALM      29.95S
STATE COLLEGE  CLEAR     45  25  45 SW6       29.93F
WILLIAMSPORT   CLEAR     41  29  62 N3        29.95S
SELINSGROVE    CLEAR     33  30  88 CALM      29.98S
FT INDIANTOWN  PTCLDY    35  31  87 CALM      30.01S
CAPITAL CITY   CLEAR     42  33  70 NW3       30.00S
HARRISBURG     PTCLDY    41  33  73 CALM      29.99F
YORK           CLEAR     50  42  74 S5        29.99F
$$

PAZ038>040-043-044-047-048-054-055-060>062-067>071-220400-
EASTERN PENNSYLVANIA

CITY           SKY/WX    TMP DP  RH WIND       PRES   REMARKS
SCRANTON       CLEAR     44  31  60 S3        29.98F
MOUNT POCONO   CLEAR     40  33  76 SW3       29.99R
ALLENTOWN      CLEAR     37  30  75 CALM      30.02S
QUAKERTOWN*    CLOUDY    37  32  81 CALM      30.03F
READING        PTCLDY    49  43  80 S5        30.01S
LANCASTER      CLEAR     45  40  82 CALM      30.01S
COATESVILLE    CLOUDY    50  43  76 VRB5      30.03F
POTTSTOWN      CLOUDY    43  38  82 S3        30.04S
BLUE BELL      CLOUDY    50  39  66 SW9       30.04F
DOYLESTOWN     CLOUDY    46  39  76 S5        30.03S
WILLOW GROVE   NOT AVBL
NORTH PHILA    CLOUDY    56  40  55 SW9       30.05S
PHILADELPHIA   MOCLDY    54  40  59 SW9       30.05S
$$




USA.gov is the U.S. government's official web portal to all federal, state and local government web resources and services.